Total_Precipitation_Accumulation
0.00 0.03 0.09 0.12 0.08 0.02 0.00 0.00 0.00 0.01 0.02 0.09 0.05 0.02 0.02 0.06 0.07 0.23 0.05 0.07 0.01 0.04 0.13 0.22 0.50 0.50 0.62 0.41 0.25 0.18 0.14 0.15 0.15 0.14 0.23 0.38 0.22 0.08 0.12 0.37 0.48 0.31 0.49 0.52 0.39 0.30 0.29 0.37 0.15
0.00 0.05 0.20 0.22 0.08 0.00 0.00 0.00 0.00 0.02 0.02 0.05 0.03 0.00 0.01 0.04 0.02 0.03 0.12 0.05 0.03 0.04 0.13 0.40 0.47 0.44 0.52 0.48 0.24 0.18 0.15 0.17 0.17 0.16 0.25 0.30 0.30 0.17 0.11 0.35 0.59 0.37 0.33 0.23 0.24 0.24 0.29 0.16 0.09
0.03 0.14 0.34 0.28 0.13 0.01 0.00 0.00 0.04 0.08 0.05 0.04 0.03 0.02 0.04 0.08 0.04 0.06 0.05 0.05 0.01 0.07 0.14 0.37 0.50 0.62 0.76 0.59 0.39 0.23 0.20 0.19 0.16 0.19 0.25 0.27 0.30 0.17 0.10 0.24 0.46 0.16 0.13 0.14 0.19 0.22 0.13 0.05 0.05
0.11 0.43 0.55 0.42 0.18 0.01 0.00 0.03 0.07 0.06 0.10 0.05 0.05 0.04 0.07 0.07 0.06 0.09 0.04 0.08 0.08 0.19 0.23 0.39 0.53 0.78 0.70 0.62 0.45 0.32 0.34 0.22 0.16 0.19 0.21 0.25 0.31 0.29 0.14 0.20 0.19 0.10 0.07 0.09 0.13 0.07 0.04 0.03 0.03
0.38 0.65 0.74 0.59 0.20 0.03 0.01 0.05 0.05 0.11 0.09 0.09 0.15 0.07 0.10 0.17 0.11 0.10 0.30 0.19 0.15 0.25 0.48 0.92 1.03 1.01 0.78 0.59 0.51 0.42 0.43 0.41 0.23 0.21 0.21 0.27 0.35 0.46 0.15 0.07 0.11 0.08 0.06 0.04 0.03 0.02 0.02 0.02 0.02
0.71 0.65 0.82 0.77 0.30 0.07 0.08 0.13 0.11 0.24 0.22 0.16 0.27 0.23 0.17 0.11 0.10 0.37 0.54 0.44 0.48 0.34 0.32 0.60 0.84 0.82 0.85 0.68 0.56 0.55 0.46 0.44 0.40 0.22 0.25 0.34 0.34 0.42 0.27 0.06 0.09 0.08 0.06 0.05 0.03 0.02 0.01 0.02 0.02
0.51 0.55 0.56 0.38 0.24 0.09 0.07 0.10 0.05 0.16 0.41 0.34 0.38 0.56 0.38 0.30 0.37 0.71 0.62 0.46 0.49 0.66 0.87 0.77 0.66 0.81 0.83 0.78 0.68 0.50 0.49 0.44 0.40 0.34 0.23 0.23 0.22 0.23 0.16 0.12 0.11 0.08 0.09 0.08 0.06 0.04 0.04 0.04 0.04
0.34 0.88 0.37 0.31 0.10 0.09 0.03 0.04 0.06 0.13 0.15 0.21 0.38 0.50 0.37 0.37 0.52 0.89 1.08 0.58 0.60 0.74 0.92 0.98 0.79 0.89 1.02 1.02 0.79 0.62 0.47 0.46 0.40 0.28 0.13 0.07 0.11 0.13 0.16 0.08 0.08 0.09 0.07 0.06 0.07 0.07 0.06 0.07 0.07
0.45 0.72 0.66 0.15 0.07 0.07 0.05 0.04 0.03 0.06 0.22 0.19 0.21 0.22 0.44 0.59 0.75 1.20 1.23 1.22 0.99 0.89 0.98 0.87 0.58 0.62 0.77 0.90 1.01 1.11 0.96 0.82 0.57 0.32 0.19 0.09 0.10 0.15 0.09 0.03 0.06 0.07 0.05 0.07 0.10 0.11 0.10 0.06 0.03
0.41 0.28 0.39 0.07 0.04 0.08 0.13 0.18 0.08 0.10 0.37 0.94 0.52 0.47 0.77 1.00 1.05 1.48 1.37 1.24 0.92 0.84 0.92 1.04 0.74 0.52 0.56 0.77 0.91 0.98 1.17 1.06 0.69 0.25 0.24 0.22 0.23 0.21 0.17 0.11 0.05 0.06 0.03 0.04 0.07 0.09 0.08 0.04 0.02
0.23 0.14 0.03 0.07 0.13 0.18 0.30 0.26 0.11 0.21 0.60 1.25 1.24 0.90 0.83 1.50 2.01 1.81 2.30 1.81 1.28 0.81 0.81 0.89 1.03 0.78 0.66 0.59 0.79 0.92 0.86 0.86 0.82 0.64 0.34 0.22 0.23 0.25 0.24 0.29 0.19 0.11 0.04 0.02 0.04 0.05 0.05 0.04 0.03
0.16 0.05 0.01 0.15 0.44 0.36 0.51 0.32 0.24 0.31 0.29 0.44 0.89 1.27 1.04 1.20 1.69 2.00 2.86 2.90 2.34 1.64 0.99 1.02 1.04 1.42 0.86 0.75 0.63 0.62 0.55 0.43 0.46 0.52 0.53 0.38 0.26 0.19 0.19 0.19 0.17 0.25 0.24 0.14 0.13 0.10 0.07 0.05 0.04
0.17 0.05 0.02 0.15 0.78 0.54 0.43 0.54 0.39 0.26 0.37 0.27 0.65 1.30 1.68 1.49 1.69 1.97 2.57 3.82 2.68 1.96 1.52 1.13 1.33 1.57 1.67 1.20 0.80 0.47 0.43 0.35 0.33 0.35 0.31 0.25 0.18 0.15 0.16 0.11 0.11 0.10 0.15 0.17 0.22 0.20 0.15 0.15 0.12
0.17 0.10 0.06 0.11 0.58 0.65 0.60 0.61 0.59 0.32 0.32 0.46 0.79 1.09 1.53 1.94 1.80 1.99 1.86 2.79 3.10 2.52 2.12 1.53 1.51 1.40 1.48 1.84 1.39 0.54 0.34 0.28 0.36 0.19 0.22 0.27 0.22 0.12 0.12 0.07 0.06 0.05 0.07 0.07 0.12 0.17 0.16 0.16 0.19
0.18 0.20 0.24 0.12 0.18 0.57 0.81 0.74 0.64 0.41 0.31 0.55 0.88 1.24 1.56 1.56 2.21 2.27 2.17 2.26 2.23 2.05 2.01 1.96 1.25 1.30 1.03 1.90 1.84 1.26 0.48 0.40 0.31 0.26 0.13 0.16 0.19 0.18 0.16 0.13 0.11 0.07 0.10 0.15 0.15 0.13 0.14 0.14 0.16
0.45 0.38 0.32 0.13 0.08 0.23 0.93 0.93 0.79 0.63 0.55 0.55 0.63 1.29 1.49 1.76 1.44 2.66 3.42 2.58 2.44 2.03 1.75 1.76 1.46 0.94 0.94 0.99 2.02 1.75 1.01 0.57 0.50 0.41 0.24 0.16 0.12 0.15 0.22 0.21 0.10 0.27 0.32 0.34 0.26 0.25 0.16 0.11 0.14
0.74 0.49 0.12 0.10 0.11 0.16 0.49 0.77 0.91 0.95 0.83 0.63 0.61 0.65 1.74 1.96 1.66 1.86 3.50 3.05 2.19 1.94 1.81 1.66 1.16 0.75 0.82 0.75 1.43 1.74 1.89 0.97 0.59 0.50 0.37 0.24 0.21 0.11 0.14 0.17 0.19 0.30 0.35 0.36 0.31 0.34 0.31 0.26 0.27
0.52 0.41 0.15 0.11 0.16 0.23 0.23 0.38 0.84 1.23 1.05 0.86 0.68 0.54 0.72 1.54 1.79 1.95 2.76 4.44 2.60 2.22 2.40 2.28 1.72 1.06 0.81 0.87 1.09 1.37 1.36 1.51 1.18 0.64 0.38 0.40 0.29 0.29 0.26 0.19 0.16 0.29 0.23 0.22 0.24 0.23 0.28 0.31 0.35
0.32 0.28 0.21 0.07 0.17 0.15 0.08 0.09 0.47 1.21 1.22 0.85 0.72 0.42 0.51 0.59 1.13 1.27 2.56 4.33 4.02 2.49 2.49 2.98 2.44 2.03 1.31 0.76 0.63 0.77 1.06 1.15 1.11 1.28 0.84 0.52 0.41 0.39 0.36 0.23 0.18 0.23 0.16 0.12 0.21 0.21 0.21 0.21 0.27
0.49 0.32 0.19 0.11 0.20 0.27 0.11 0.11 0.20 0.80 1.15 1.05 0.83 0.34 0.25 0.31 0.40 0.63 1.13 2.58 4.48 3.24 2.41 2.86 2.92 2.06 1.50 1.05 0.86 0.89 1.06 0.96 1.12 1.26 1.09 1.07 0.87 0.78 0.45 0.30 0.33 0.25 0.16 0.15 0.16 0.22 0.19 0.14 0.15
0.50 0.31 0.22 0.16 0.32 0.42 0.23 0.29 0.29 0.43 0.80 0.89 0.90 0.53 0.23 0.11 0.21 0.42 0.54 1.07 2.30 3.78 2.59 2.77 3.59 2.77 2.01 1.68 1.91 1.86 1.75 1.28 1.22 1.04 1.16 1.60 1.72 1.48 1.09 0.86 0.79 0.65 0.48 0.52 0.42 0.51 0.51 0.41 0.34
0.90 0.34 0.32 0.39 1.00 1.04 0.46 0.56 0.39 0.19 0.37 0.46 0.58 0.47 0.23 0.13 0.15 0.23 0.30 0.66 1.17 2.46 2.71 2.62 3.22 4.21 2.45 2.18 1.78 1.26 1.22 1.36 1.05 1.25 1.45 1.24 1.39 1.52 1.71 1.74 1.52 1.31 1.27 1.13 1.16 1.02 1.12 1.21 1.08
1.19 0.69 0.37 0.62 1.14 1.02 0.55 0.83 0.44 0.15 0.17 0.21 0.34 0.44 0.22 0.06 0.05 0.11 0.13 0.35 0.87 1.30 2.36 2.51 3.34 3.38 4.50 3.02 2.35 1.47 1.02 0.96 0.91 0.84 0.86 1.02 1.04 1.22 1.46 1.64 1.81 1.81 1.90 1.88 1.97 1.89 1.71 1.52 1.34
1.07 0.79 0.80 1.14 1.67 1.66 0.42 0.59 0.75 0.40 0.19 0.18 0.19 0.56 0.30 0.12 0.08 0.13 0.24 0.33 0.54 0.84 1.65 2.36 3.12 2.89 4.42 4.62 3.88 2.39 1.33 1.09 1.28 1.05 1.08 1.17 1.42 1.50 1.65 1.88 1.85 1.87 1.66 1.49 1.61 1.73 1.47 1.17 0.99
1.93 1.81 2.47 2.61 1.93 1.13 0.67 0.73 0.52 0.45 0.46 0.50 0.24 0.56 0.40 0.15 0.08 0.10 0.17 0.13 0.35 0.63 1.06 1.47 2.89 2.69 3.42 3.74 4.34 4.00 3.08 1.72 1.33 1.40 1.33 0.94 0.94 0.94 0.97 1.02 1.25 1.29 1.14 0.93 0.91 0.95 0.92 0.85 0.78
1.74 1.75 1.83 1.38 0.92 0.47 0.37 0.57 0.65 0.64 0.52 0.49 0.25 0.51 0.45 0.17 0.08 0.08 0.11 0.14 0.24 0.46 0.90 1.03 1.43 2.13 2.28 2.65 3.97 4.20 4.46 3.83 2.28 1.72 1.18 0.98 0.60 0.55 0.63 0.61 0.79 0.87 0.83 0.76 0.60 0.57 0.64 0.74 0.87
1.61 1.20 1.07 0.89 0.49 0.57 0.43 0.34 0.52 0.76 0.86 0.65 0.45 0.59 0.57 0.18 0.06 0.08 0.13 0.18 0.25 0.44 0.60 0.91 1.05 1.13 1.70 1.48 2.61 3.14 3.03 3.00 2.49 1.99 1.34 1.08 0.92 0.66 0.54 0.71 0.70 0.66 0.65 0.61 0.57 0.54 0.56 0.61 0.64
1.27 0.70 0.88 1.57 1.10 0.78 0.35 0.38 0.98 0.88 1.05 0.99 0.73 0.88 0.74 0.36 0.20 0.22 0.25 0.38 0.36 0.47 0.68 0.83 0.97 1.06 1.17 1.25 1.33 1.70 1.95 2.28 2.18 1.97 1.59 1.07 0.96 0.84 0.69 0.57 0.65 0.72 0.64 0.66 0.51 0.41 0.39 0.50 0.56
1.06 1.00 0.63 0.67 0.47 0.62 0.47 0.81 1.29 1.37 1.63 1.55 1.37 1.31 1.34 0.92 0.47 0.52 0.61 0.66 0.67 1.10 0.95 0.90 0.99 1.09 1.13 0.97 1.01 1.13 1.44 1.54 1.41 1.68 1.47 1.03 0.81 0.72 0.70 0.65 0.55 0.51 0.53 0.47 0.53 0.35 0.30 0.30 0.32
0.41 0.38 0.40 1.01 0.61 0.58 0.72 0.88 0.73 1.26 1.90 2.08 1.72 1.72 1.89 1.16 0.69 0.84 1.13 1.20 1.53 1.46 1.11 1.03 1.12 0.85 1.38 1.20 1.01 0.90 0.97 1.10 0.93 0.99 1.17 1.52 0.79 0.63 0.64 0.59 0.68 0.62 0.56 0.54 0.51 0.44 0.32 0.28 0.24